Satellite: MET-3/5
Catalog number: 21655
Epoch time:      06011.86788110
Element set:    0013
Inclination:      082.5563 deg
RA of node:       011.2334 deg
Eccentricity:    0.0014394
Arg of perigee:   073.9057 deg
Mean anomaly:     286.3669 deg
Mean motion:   13.17005122 rev/day
Decay rate:        5.1e-07 rev/day^2
Epoch rev:           69278
Checksum:              284

Satellite: MET-2/21
Catalog number: 22782
Epoch time:      06012.77020186
Element set:     402
Inclination:      082.5472 deg
RA of node:       094.7530 deg
Eccentricity:    0.0020894
Arg of perigee:   253.5615 deg
Mean anomaly:     106.3254 deg
Mean motion:   13.83598447 rev/day
Decay rate:       -6.0e-07 rev/day^2
Epoch rev:           62455
Checksum:              291

Satellite: OKEAN-4
Catalog number: 23317
Epoch time:      06012.42148214
Element set:     835
Inclination:      082.5391 deg
RA of node:       062.2873 deg
Eccentricity:    0.0022431
Arg of perigee:   163.9246 deg
Mean anomaly:     196.2650 deg
Mean motion:   14.82295736 rev/day
Decay rate:       1.59e-06 rev/day^2
Epoch rev:           60690
Checksum:              292

Satellite: NOAA-14
Catalog number: 23455
Epoch time:      06012.44552146
Element set:     950
Inclination:      099.0647 deg
RA of node:       068.8908 deg
Eccentricity:    0.0009873
Arg of perigee:   128.4174 deg
Mean anomaly:     231.7890 deg
Mean motion:   14.13626266 rev/day
Decay rate:      -1.70e-06 rev/day^2
Epoch rev:           56906
Checksum:              318

Satellite: SICH-1
Catalog number: 23657
Epoch time:      06011.77019151
Element set:    0642
Inclination:      082.5285 deg
RA of node:       203.7502 deg
Eccentricity:    0.0024743
Arg of perigee:   154.1294 deg
Mean anomaly:     206.1138 deg
Mean motion:   14.81298845 rev/day
Decay rate:       2.52e-06 rev/day^2
Epoch rev:           55883
Checksum:              289

Satellite: NOAA-15
Catalog number: 25338
Epoch time:      06012.23909195
Element set:     355
Inclination:      098.5156 deg
RA of node:       019.2251 deg
Eccentricity:    0.0011375
Arg of perigee:   107.7559 deg
Mean anomaly:     252.4858 deg
Mean motion:   14.24558530 rev/day
Decay rate:        3.9e-07 rev/day^2
Epoch rev:           39851
Checksum:              312

Satellite: RESURS
Catalog number: 25394
Epoch time:      06011.95612824
Element set:    0301
Inclination:      098.5176 deg
RA of node:       079.9648 deg
Eccentricity:    0.0000811
Arg of perigee:   291.0589 deg
Mean anomaly:     069.0504 deg
Mean motion:   14.24094327 rev/day
Decay rate:       -5.0e-08 rev/day^2
Epoch rev:           39016
Checksum:              291

Satellite: FENGYUN1
Catalog number: 25730
Epoch time:      06011.63896485
Element set:    0625
Inclination:      098.6173 deg
RA of node:       010.1844 deg
Eccentricity:    0.0013615
Arg of perigee:   225.7550 deg
Mean anomaly:     134.2507 deg
Mean motion:   14.11803534 rev/day
Decay rate:      -2.79e-06 rev/day^2
Epoch rev:           34392
Checksum:              283

Satellite: OKEAN-0
Catalog number: 25860
Epoch time:      06011.66950032
Element set:    0640
Inclination:      097.7442 deg
RA of node:       033.2288 deg
Eccentricity:    0.0000387
Arg of perigee:   054.7461 deg
Mean anomaly:     305.3771 deg
Mean motion:   14.73329844 rev/day
Decay rate:        5.8e-07 rev/day^2
Epoch rev:           34870
Checksum:              291

Satellite: NOAA-16
Catalog number: 26536
Epoch time:      06012.21710506
Element set:     704
Inclination:      099.0452 deg
RA of node:       337.1823 deg
Eccentricity:    0.0010258
Arg of perigee:   195.9151 deg
Mean anomaly:     164.1664 deg
Mean motion:   14.12308080 rev/day
Decay rate:       1.91e-06 rev/day^2
Epoch rev:           27356
Checksum:              273

Satellite: NOAA-17
Catalog number: 27453
Epoch time:      06010.04966020
Element set:     725
Inclination:      098.6412 deg
RA of node:       085.2170 deg
Eccentricity:    0.0011885
Arg of perigee:   171.3449 deg
Mean anomaly:     188.7944 deg
Mean motion:   14.23739712 rev/day
Decay rate:       -4.5e-07 rev/day^2
Epoch rev:           18427
Checksum:              305

Satellite: NOAA-18
Catalog number: 28654
Epoch time:      06012.47986695
Element set:     317
Inclination:      098.7709 deg
RA of node:       319.2314 deg
Eccentricity:    0.0013834
Arg of perigee:   304.8448 deg
Mean anomaly:     055.1430 deg
Mean motion:   14.10921146 rev/day
Decay rate:       2.83e-06 rev/day^2
Epoch rev:            3342
Checksum:              303

/EX
SB KEPS @ AMSAT  $ORB06012.M
Orbital Elements  06012.MISC

HR AMSAT ORBITAL ELEMENTS FOR MANNED AND MISCELLANEOUS SATELLITES
FROM WA5QGD FORT WORTH,TX January 12, 2006
Send SUBSCRIBE KEPS/UNSUBSCRIBE KEPS to majordomo@amsat.org only
BID: ORB06012.M
TO ALL RADIO AMATEURS BT

Satellite: HUBBLE
Catalog number: 20580
Epoch time:      06012.93377542
Element set:     523
Inclination:      028.4701 deg
RA of node:       341.8830 deg
Eccentricity:    0.0003514
Arg of perigee:   339.0999 deg
Mean anomaly:     020.9456 deg
Mean motion:   14.99944747 rev/day
Decay rate:       3.38e-06 rev/day^2
Epoch rev:           66176
Checksum:              311

Satellite: UARS
Catalog number: 21701
Epoch time:      06012.60556194
Element set:     661
Inclination:      056.9792 deg
RA of node:       042.0640 deg
Eccentricity:    0.0102671
Arg of perigee:   271.4550 deg
Mean anomaly:     087.4748 deg
Mean motion:   15.41781441 rev/day
Decay rate:      4.780e-05 rev/day^2
Epoch rev:           78529
Checksum:              296

